St. Johns, AZ

3:45 AM MST on May 26, 2018 (GMT -0700)
Saint Johns Industrial

Weather History for KSJN - January, 2012

Change the Weather History Date:

Sunday, January 29, 2012

  Actual Average (KLSB) Record (KLSB)
Temperature  
Mean Temperature 32 °F -  
Max Temperature 52 °F 61 °F 66 °F (2016)
Min Temperature 12 °F 24 °F 21 °F (2016)
Degree Days  
Heating Degree Days 33    
Moisture  
Dew Point 6 °F    
Average Humidity 40    
Maximum Humidity 71    
Minimum Humidity 12    
Precipitation  
Precipitation 0.00 in - - ()
Sea Level Pressure  
Sea Level Pressure 30.37 in    
Wind  
Wind Speed 4 mph (SSW)    
Max Wind Speed 7 mph    
Max Gust Speed -    
Visibility 10 miles    
Events      
Averages and records for this station are not official NWS values.
T = Trace of Precipitation, MM = Missing Value Source: NWS Daily Summary

Daily Weather History Graph

Daily Weather History Graph

Search for Another Location

Airport or City:

Astronomy

Jan. 29, 2012 Rise Set
Actual Time 7:17 AM MST 5:43 PM MST
Civil Twilight 6:51 AM MST 6:10 PM MST
Nautical Twilight 6:20 AM MST 6:40 PM MST
Astronomical Twilight 5:51 AM MST 7:10 PM MST
Moon 10:30 AM MST (1/29) No Moon Set
Length of Visible Light 11h 19m
Length of Day
10h 25m
Waxing Crescent, 37% of the Moon is Illuminated
Jan 29
Waxing Crescent
Jan 30
First Quarter
Feb 7
Full
Feb 14
Last Quarter
Feb 21
New

Hourly Weather History & Observations

Time (MST) Temp. Windchill Dew Point Humidity Pressure Visibility Wind Dir Wind Speed Gust Speed Precip Events Conditions
12:54 AM 24.1 °F 18.2 °F 10.0 °F 55% 30.41 in 10.0 mi SSE 4.6 mph - N/A   Clear
1:54 AM 19.0 °F 11.1 °F 7.0 °F 59% 30.43 in 10.0 mi South 5.8 mph - N/A   Clear
2:54 AM 19.0 °F 13.9 °F 8.1 °F 62% 30.41 in 10.0 mi South 3.5 mph - N/A   Clear
3:54 AM 17.1 °F 11.7 °F 6.1 °F 62% 30.43 in 10.0 mi NNW 3.5 mph - N/A   Clear
4:54 AM 12.9 °F - 3.0 °F 65% 30.44 in 9.0 mi Calm Calm - N/A   Clear
5:54 AM 14.0 °F 6.5 °F 6.1 °F 71% 30.47 in 10.0 mi South 4.6 mph - N/A   Clear
6:54 AM 15.1 °F - 7.0 °F 70% 30.51 in 10.0 mi Calm Calm - N/A   Clear
7:54 AM 15.1 °F - 6.1 °F 68% 30.50 in 10.0 mi Calm Calm - N/A   Clear
8:54 AM 24.1 °F 18.2 °F 10.0 °F 55% 30.49 in 10.0 mi NNE 4.6 mph - N/A   Clear
9:54 AM 30.9 °F - 10.0 °F 42% 30.48 in 10.0 mi Calm Calm - N/A   Clear
10:54 AM 37.0 °F 34.5 °F 8.1 °F 30% 30.44 in 10.0 mi NW 3.5 mph - N/A   Clear
11:54 AM 42.1 °F 38.4 °F 6.1 °F 23% 30.40 in 10.0 mi NW 5.8 mph - N/A   Clear
12:54 PM 46.0 °F 43.9 °F 8.1 °F 21% 30.35 in 10.0 mi NNW 4.6 mph - N/A   Clear
1:54 PM 50.0 °F - 3.0 °F 15% 30.32 in 10.0 mi NW 6.9 mph - N/A   Clear
2:54 PM 52.0 °F - -0.0 °F 12% 30.28 in 10.0 mi Variable 3.5 mph - N/A   Clear
3:54 PM 52.0 °F - 1.0 °F 12% 30.27 in 10.0 mi Calm Calm - N/A   Clear
4:54 PM 51.1 °F - 3.0 °F 14% 30.27 in 10.0 mi WNW 3.5 mph - N/A   Clear
5:54 PM 45.0 °F - 3.0 °F 18% 30.27 in 10.0 mi Calm Calm - N/A   Clear
6:54 PM 36.0 °F - 3.0 °F 25% 30.31 in 5.0 mi Calm Calm - N/A   Haze
7:54 PM 33.1 °F 28.7 °F 3.9 °F 29% 30.32 in 10.0 mi South 4.6 mph - N/A   Clear
8:54 PM 30.9 °F 25.2 °F 3.0 °F 31% 30.28 in 10.0 mi South 5.8 mph - N/A   Clear
9:54 PM 30.9 °F 25.2 °F 6.1 °F 35% 30.25 in 10.0 mi SSE 5.8 mph - N/A   Clear
10:54 PM 30.9 °F 24.3 °F 7.0 °F 37% 30.23 in 10.0 mi South 6.9 mph - N/A   Clear
11:54 PM 30.0 °F 24.1 °F 8.1 °F 40% 30.22 in 10.0 mi South 5.8 mph - N/A   Clear